This is the latest recevied weather packets stored in our database for station/object WX6HNX-6. If no packets are shown the sender has not sent any weather packets the latest 10 day(s).
| Time | Temp. | Humidity | Pressure | Rain* | Wind** | Luminosity | Snow |
|---|---|---|---|---|---|---|---|
| 1777645491 | 15° C | 68% | 1013.9 hPa | 0 mm | - | - | - |
| 1777645191 | 15° C | 68% | 1013.9 hPa | 0 mm | - | - | - |
| 1777644891 | 14.44° C | 68% | 1013.9 hPa | 0 mm | - | - | - |
| 1777644590 | 14.44° C | 69% | 1013.8 hPa | 0 mm | - | - | - |
| 1777644290 | 13.89° C | 69% | 1013.8 hPa | 0 mm | - | - | - |
| 1777643990 | 13.89° C | 70% | 1013.7 hPa | 0 mm | - | - | - |
| 1777643690 | 13.33° C | 71% | 1013.7 hPa | 0 mm | - | - | - |
| 1777643391 | 12.78° C | 71% | 1013.6 hPa | 0 mm | - | - | - |
| 1777643090 | 12.78° C | 70% | 1013.6 hPa | 0 mm | - | - | - |
| 1777642791 | 12.78° C | 70% | 1013.6 hPa | 0 mm | - | - | - |
| 1777642491 | 12.22° C | 70% | 1013.5 hPa | 0 mm | - | - | - |
| 1777642190 | 12.22° C | 70% | 1013.5 hPa | 0 mm | - | - | - |
| 1777641891 | 12.22° C | 69% | 1013.5 hPa | 0 mm | - | - | - |
| 1777641591 | 12.22° C | 69% | 1013.4 hPa | 0 mm | - | - | - |
| 1777641291 | 12.22° C | 68% | 1013.4 hPa | 0 mm | - | - | - |
| 1777640990 | 12.22° C | 69% | 1013.4 hPa | 0 mm | - | - | - |
| 1777640690 | 12.22° C | 69% | 1013.3 hPa | 0 mm | - | - | - |
| 1777639490 | 12.78° C | 69% | 1013.2 hPa | 0 mm | - | - | - |
| 1777639190 | 12.78° C | 68% | 1013.3 hPa | 0 mm | - | - | - |
| 1777638890 | 12.78° C | 67% | 1013.3 hPa | 0 mm | - | - | - |
| 1777638590 | 12.78° C | 66% | 1013.4 hPa | 0 mm | - | - | - |
| 1777638290 | 13.33° C | 66% | 1013.2 hPa | 0 mm | - | - | - |
| 1777637988 | 13.33° C | 66% | 1013.2 hPa | 0 mm | - | - | - |
| 1777637688 | 13.89° C | 66% | 1013.1 hPa | 0 mm | - | - | - |
| 1777637388 | 13.89° C | 67% | 1013.1 hPa | 0 mm | - | - | - |
* Rain latest hour (hover to see other rain measurements)
** Current wind speed in m/s (hover to see current wind gust speed)